User: anonymous   Login
Location: Unspecified
(0.0000°N, 0.0000°E)
Time: 19:02:57
(UTC+00:00)
Language:

USA 78 - Orbit

View from above orbital plane
View from above orbital plane
View from above satellite
View from above satellite

Ground track
Ground track

The orbit data is extracted from the following two-line orbital elements,

1 21873U 92006A   17074.83003271 0.00000000  00000-0  00000-0 0    04
2 21873  13.2268  30.3094 0007545 270.4431  89.4825  0.99031608    08
Epoch (UTC): 15 March 2017 19:55:14
Eccentricity: 0.0007545
inclination: 13.2268°
perigee height: 36105 km
apogee height: 36169 km
right ascension of ascending node: 30.3094°
argument of perigee: 270.4431°
revolutions per day: 0.99031608
mean anomaly at epoch: 89.4825°
orbit number at epoch: 0

The dashed part of the orbit path shows where the satellite is in the earth's shadow,  

DLR